Location: Newark
(34.1333°N, 7.9667°W)
Time: 23:13:55
(UTC+00:00)

ISS - Visible Passes

Search period start: 09 May 2021 00:00
Search period end: 19 May 2021 00:00
Orbit: 417 x 421 km, 51.6° (Epoch: 09 May)

Date Brightness Start Highest point End Pass type
(mag) Time Alt. Az. Time Alt. Az. Time Alt. Az.
11 May -0.7 04:51:11 10° NNW 04:53:34 17° NNE 04:55:55 10° ENE visible
12 May -0.4 04:04:31 10° N 04:05:54 12° NNE 04:07:19 10° NE visible
13 May -2.5 04:52:26 10° NW 04:55:42 46° NE 04:58:58 10° ESE visible
13 May -1.1 21:32:55 10° SW 21:33:21 13° WSW 21:33:21 13° WSW visible
14 May -1.4 04:05:15 10° NNW 04:08:11 27° NE 04:11:07 10° E visible
14 May -3.9 20:45:28 10° SW 20:48:48 67° SE 20:52:08 10° NE visible
14 May -0.5 22:24:00 10° WNW 22:25:55 14° NNW 22:27:50 10° N visible
15 May -0.7 03:18:13 10° NNW 03:20:36 18° NNE 03:22:58 10° ENE visible
15 May -3.5 04:54:19 10° WNW 04:57:34 46° SW 05:00:49 10° SSE visible
15 May -3.1 19:58:23 10° SSW 20:01:26 33° SE 20:04:30 10° ENE visible
15 May -1.1 21:35:39 10° W 21:38:17 21° NNW 21:40:56 10° NNE visible
16 May -0.3 02:31:32 10° N 02:32:56 12° NNE 02:34:21 10° NE visible
16 May -3.8 04:06:48 10° NW 04:10:11 89° NE 04:13:33 10° SE visible
16 May -1.9 20:47:38 10° WSW 20:50:44 34° NW 20:53:50 10° NNE visible
17 May -2.7 03:19:27 10° NW 03:22:44 46° NE 03:25:59 10° ESE visible
17 May -1.9 04:57:33 10° W 04:59:12 13° SW 05:00:50 10° SSW visible
17 May -3.2 19:59:55 10° WSW 20:03:14 62° NW 20:06:34 10° NE visible
18 May -1.3 04:14:34 11° S 04:14:34 11° S 04:14:40 10° S visible
18 May -0.5 20:51:01 10° WNW 20:52:55 14° NNW 20:54:48 10° N visible
